Theta_e
350 351 352 352 352 353 355 357 356 353 352 351 350 353 351 355 353 346 350 352 347 346 349 347 344 350 352 348 348 349 347 344 341 344 346 346 351 357 372 374 365 363 365 367 368 368 365 363 360 356 353 356 354 353 352 353 361 359 362 371 356 357 353 352 352 351 348 347 352 347 348 350 345 345 342 342 346 349 353 349 349 353 355 354 354
349 348 350 350 351 352 356 355 355 345 346 346 350 353 356 353 357 361 357 357 357 352 350 347 358 349 346 347 347 346 347 348 349 353 350 352 365 371 373 365 365 364 366 370 369 368 364 362 359 356 357 357 358 362 359 366 366 359 356 357 357 352 352 352 350 348 346 343 343 343 345 343 343 340 341 342 342 344 343 350 356 352 350 353 354
345 346 346 347 350 356 354 354 353 351 349 348 349 351 354 355 365 366 360 360 358 360 371 366 358 357 357 357 358 354 358 363 364 362 362 361 362 365 370 369 368 364 364 367 366 364 363 362 360 355 357 358 363 363 363 364 365 359 362 353 351 353 351 353 353 352 343 346 350 346 339 341 356 350 344 341 340 340 341 341 345 347 348 349 350
339 340 342 346 347 352 353 354 354 352 351 349 349 348 350 358 361 363 362 361 367 374 367 362 358 360 360 360 359 362 363 369 365 361 360 362 362 360 364 365 363 362 362 361 362 361 363 362 359 357 357 360 360 364 361 357 362 360 354 353 354 348 348 347 351 353 349 345 339 338 343 338 336 338 339 341 341 340 339 340 343 343 344 346 352
339 337 337 340 345 349 352 354 354 353 352 350 349 349 350 349 356 364 364 364 368 368 365 361 360 359 360 357 358 358 360 362 362 360 360 366 363 358 357 362 364 362 363 362 361 363 363 363 361 359 356 359 354 354 359 356 357 355 356 356 355 350 348 349 351 350 349 353 350 350 341 337 341 339 336 346 340 338 338 338 339 342 343 344 345
340 343 346 349 347 346 349 350 351 352 352 351 352 352 352 353 354 360 363 363 363 368 365 364 361 359 357 353 352 354 355 358 358 357 359 360 359 360 360 361 363 364 364 364 361 361 360 362 362 359 356 355 356 352 354 356 358 355 354 356 352 354 353 352 348 352 349 354 354 349 348 346 346 342 338 345 349 343 341 340 352 345 355 344 344
343 346 346 346 348 349 347 348 351 348 350 354 354 353 352 354 359 360 360 362 362 366 368 368 364 360 356 354 353 354 355 358 361 362 359 362 360 360 358 359 361 360 361 363 364 363 361 361 362 361 357 355 355 356 355 354 354 353 354 356 354 355 359 354 350 348 349 348 346 347 347 346 342 339 340 339 339 349 343 341 339 344 340 341 341
344 344 347 345 348 351 348 345 344 345 349 349 349 348 351 356 356 360 364 365 364 365 366 369 364 359 356 354 354 354 355 356 358 360 361 360 355 355 357 360 359 360 358 360 363 362 361 359 360 361 357 355 352 351 351 355 356 353 356 356 356 361 359 353 352 350 347 347 347 346 346 346 346 345 342 335 336 340 345 344 342 340 340 343 343
337 343 343 347 348 346 347 350 355 351 347 348 355 355 354 352 356 358 363 368 366 367 366 366 367 362 358 356 354 357 358 359 362 364 361 360 358 360 359 358 357 365 366 366 366 364 362 359 358 359 357 357 356 352 351 354 357 357 360 368 361 359 356 355 357 356 351 346 347 350 345 345 346 346 345 344 341 336 335 338 342 341 342 341 355
340 348 348 351 352 349 350 351 351 350 349 350 351 353 350 351 355 357 363 366 368 369 368 366 366 365 360 360 359 359 359 361 361 362 361 361 358 356 360 362 362 373 369 364 361 362 362 362 358 354 356 354 357 353 351 354 359 358 360 357 358 358 357 356 356 355 353 351 348 348 353 353 348 344 344 344 342 342 337 336 337 337 341 347 344
336 341 346 346 345 344 345 346 345 347 347 346 347 349 350 350 353 358 363 365 365 365 365 363 362 362 363 361 361 360 361 360 360 359 359 357 358 359 360 361 363 365 368 365 360 360 360 361 357 354 354 357 359 356 354 352 354 357 356 358 361 361 358 357 355 356 355 355 350 348 350 346 349 346 347 345 341 341 340 338 339 339 337 338 352
336 338 339 342 344 345 344 344 346 344 345 344 346 347 349 350 353 361 363 366 365 363 362 361 360 360 362 363 360 362 363 360 359 358 359 357 357 358 360 359 359 362 362 360 363 360 360 360 360 357 356 355 355 356 354 353 354 356 356 358 358 359 361 360 357 354 352 353 352 349 348 346 347 347 346 347 346 346 341 342 340 346 341 340 341
338 337 338 337 338 339 338 339 341 345 344 345 343 343 345 350 352 356 363 366 366 363 362 362 361 359 361 362 363 364 363 362 359 358 359 358 358 357 358 360 362 361 359 357 357 358 358 360 359 357 355 354 355 355 356 358 357 355 355 356 356 359 359 359 357 355 353 350 349 350 349 348 348 348 348 346 345 346 347 347 343 346 342 346 344
334 335 336 337 338 337 338 339 342 342 341 342 342 346 349 347 354 352 357 365 370 367 364 363 362 362 362 362 363 364 363 362 359 356 355 355 355 355 354 356 358 357 357 358 359 358 359 360 362 365 365 364 365 364 360 360 360 358 356 356 355 358 360 361 360 357 356 354 352 349 350 350 350 350 349 347 345 343 347 342 353 347 343 342 348
334 336 336 339 337 338 338 338 341 340 342 341 342 350 350 349 354 356 357 360 364 364 365 364 362 363 362 360 361 363 362 362 360 358 357 356 357 357 357 356 356 358 357 360 361 359 358 362 367 363 362 361 360 360 359 359 364 363 359 359 358 358 361 358 357 356 355 353 352 352 352 351 351 352 351 350 347 347 346 348 355 351 344 343 345
332 334 335 336 339 338 339 340 339 339 343 341 340 342 341 348 351 352 356 357 360 364 362 358 359 356 360 363 361 361 363 363 362 360 358 358 357 356 354 355 357 358 362 362 362 360 358 365 366 361 361 360 361 360 360 358 360 360 361 359 359 357 358 358 358 356 355 354 352 353 352 351 353 352 352 351 352 351 349 354 353 348 346 343 345
331 332 336 336 337 339 339 340 339 339 339 340 343 341 346 347 347 352 355 355 358 363 357 358 359 357 357 355 354 357 362 361 360 361 361 359 359 357 355 358 359 361 359 361 359 360 359 361 360 358 359 360 358 359 358 359 362 362 360 363 359 357 359 360 358 356 356 355 353 352 352 353 355 358 355 353 362 359 352 360 356 351 352 347 346
334 335 338 338 339 340 340 339 340 339 340 340 342 341 346 351 352 351 352 355 357 359 356 353 354 354 355 354 353 353 351 357 361 362 362 361 360 360 360 359 358 359 360 359 359 360 360 363 361 361 359 359 358 358 358 359 361 361 360 364 362 362 360 359 357 356 355 356 354 353 353 352 354 357 356 354 366 365 354 351 356 356 359 351 350
336 335 335 336 337 338 342 338 338 339 341 339 339 344 348 347 352 354 355 355 356 357 357 358 358 355 354 352 350 349 351 356 362 365 367 362 360 360 359 358 359 360 361 361 361 358 361 363 363 361 361 360 358 357 360 361 362 361 360 359 361 364 362 360 360 357 355 354 355 353 352 352 353 356 355 352 354 354 358 357 365 364 362 358 353
335 335 334 334 335 337 337 337 336 339 338 338 338 341 341 348 351 353 354 356 358 358 358 358 359 357 354 354 355 358 361 363 371 368 367 362 360 359 359 358 357 358 359 360 360 357 358 359 359 360 358 357 356 357 358 360 362 361 360 357 358 364 362 361 360 357 354 355 356 354 354 356 356 360 355 354 355 353 354 360 362 364 362 360 359
335 335 334 333 336 336 335 335 339 340 339 341 342 342 341 347 351 352 349 353 354 356 357 357 359 359 359 357 358 360 363 365 366 372 367 363 361 360 359 359 358 357 359 360 358 357 359 358 358 359 358 357 358 356 356 360 362 363 362 360 360 362 362 359 361 360 358 355 358 357 358 360 363 354 355 355 355 358 360 363 364 362 359 358 358
335 334 332 334 336 336 336 337 339 339 339 342 343 344 344 348 349 351 354 354 353 354 356 358 359 359 358 359 361 363 364 365 365 364 366 362 361 360 360 359 357 360 359 357 358 357 356 357 356 357 358 357 360 361 360 359 362 362 361 359 359 361 363 362 362 362 363 361 360 363 360 356 364 359 356 353 351 355 358 360 363 360 356 356 357
336 334 334 335 336 337 337 341 340 340 343 344 345 346 347 347 347 350 351 352 354 355 357 358 357 357 357 358 360 361 362 362 362 363 365 366 361 362 359 358 358 359 360 359 357 357 357 357 357 358 359 358 359 359 360 360 361 361 361 359 357 358 361 363 363 364 364 364 361 363 364 363 359 356 359 361 356 354 359 360 357 358 357 356 358
337 338 337 339 338 339 342 340 340 342 343 344 347 348 344 345 349 351 351 352 353 355 356 356 356 355 356 358 359 360 360 361 361 363 357 359 362 360 359 357 355 357 357 357 357 357 355 355 355 356 357 358 358 358 360 360 362 363 362 361 361 360 359 361 363 363 363 364 363 361 361 367 366 363 362 363 364 360 358 358 356 358 358 357 358
337 337 338 341 341 341 342 342 344 345 345 347 347 347 348 349 348 349 352 353 353 355 356 356 355 355 355 355 356 357 358 360 360 361 360 360 360 362 359 354 356 358 360 361 364 360 353 355 356 356 357 357 357 359 360 360 359 363 363 362 363 363 361 367 364 364 363 365 365 363 365 363 363 363 362 361 363 361 360 359 357 359 358 356 356
337 338 339 339 341 342 344 342 344 343 345 347 348 347 347 347 349 351 351 352 353 354 355 354 354 353 354 354 355 356 357 359 359 357 358 359 360 361 361 359 359 359 364 360 359 357 356 354 355 357 356 357 359 360 361 361 359 359 360 363 364 365 363 358 359 359 361 364 364 363 363 358 359 359 361 361 360 361 362 360 359 358 357 354 352
335 337 338 341 341 339 340 343 344 342 343 342 342 344 346 347 348 350 352 352 353 354 354 353 353 352 353 353 353 354 356 359 359 358 358 359 361 361 361 360 360 359 361 364 361 358 358 356 357 360 359 358 359 361 361 362 362 361 364 364 369 367 360 358 359 361 359 359 362 365 369 364 364 363 364 362 362 364 363 362 361 358 356 354 351
336 335 335 336 338 339 340 342 343 344 344 343 344 344 345 346 346 348 351 351 350 352 354 354 353 350 349 349 352 353 356 359 361 362 361 361 361 361 362 360 359 356 361 362 361 357 360 361 359 358 359 362 362 359 360 360 362 364 366 367 365 361 361 358 357 358 357 356 358 361 365 368 368 366 364 364 364 362 361 360 360 357 355 353 350
329 334 337 336 336 339 340 340 343 343 342 343 344 345 346 346 346 348 349 350 351 352 352 353 353 352 352 353 353 354 355 357 357 358 359 360 361 361 362 361 359 359 360 358 356 355 354 355 356 359 356 356 357 359 362 364 364 365 368 365 362 361 360 357 359 361 360 358 357 359 362 366 368 369 369 368 367 365 360 358 358 356 354 351 350
328 332 334 337 337 338 340 341 341 341 341 341 343 344 344 343 343 346 348 349 350 350 351 352 352 352 353 353 353 353 354 356 355 353 355 357 358 357 356 357 358 362 357 355 354 353 352 351 351 352 353 355 356 356 360 365 366 366 369 365 362 361 360 358 359 359 358 355 355 360 364 366 365 368 367 366 365 365 365 361 357 355 354 351 350
332 334 334 334 337 339 338 338 339 340 340 341 342 343 343 343 344 345 346 348 350 349 348 347 350 351 352 352 353 353 354 353 354 354 355 355 354 352 351 349 352 357 358 355 354 353 353 354 353 350 351 353 355 358 360 349 351 360 369 364 360 360 360 361 361 358 355 354 355 357 355 354 358 365 364 364 363 363 363 362 361 360 359 354 350
331 334 335 336 336 337 337 337 339 340 340 341 341 342 343 342 344 345 346 348 348 349 349 348 349 351 353 352 352 352 352 352 353 354 354 354 353 349 345 343 349 355 359 357 355 354 354 353 353 352 351 353 354 359 347 344 347 349 362 364 362 360 358 358 362 360 357 355 354 353 356 358 360 362 362 361 361 362 360 359 359 357 356 356 356
331 333 334 334 336 338 339 338 341 343 340 340 341 341 340 342 343 345 346 346 347 348 350 350 348 350 351 352 352 350 349 348 349 351 353 353 349 346 347 349 352 357 358 354 350 353 354 355 354 352 351 353 355 354 343 341 343 344 350 363 362 361 361 361 361 361 357 354 352 350 353 359 360 364 361 359 358 357 357 354 353 352 350 348 343
328 328 333 336 335 335 337 340 339 339 338 340 342 341 341 344 345 346 345 346 346 347 348 347 349 351 353 351 350 348 347 349 351 350 351 352 351 347 349 353 355 356 356 354 352 351 353 354 354 353 352 353 355 356 339 338 338 340 344 355 362 360 359 359 359 359 357 352 351 349 353 357 358 359 358 357 355 353 349 348 347 346 346 347 347
329 330 328 334 338 338 338 337 338 339 339 339 341 343 344 343 344 344 345 345 346 346 346 346 348 347 348 346 346 343 339 343 348 349 350 351 351 350 348 350 352 353 353 351 351 352 352 354 354 354 354 355 356 347 335 335 335 337 340 353 361 360 358 357 357 357 358 353 350 350 354 356 355 356 356 355 352 350 348 347 346 345 340 336 335
329 329 335 335 335 336 337 338 341 339 339 339 338 341 341 341 344 343 344 345 346 345 345 347 345 345 349 345 341 340 340 339 340 343 344 347 349 351 351 351 350 352 353 353 353 353 354 353 355 356 355 354 355 340 333 333 332 334 338 355 361 358 358 356 355 355 355 355 353 352 353 352 355 355 354 350 351 350 346 346 341 334 332 329 327
330 330 330 335 338 335 337 337 337 337 337 338 341 342 342 341 341 342 343 344 345 344 345 346 346 346 346 343 341 340 338 337 337 337 338 342 347 348 351 351 349 350 351 352 350 350 353 351 352 354 354 354 356 342 330 329 329 330 339 352 356 356 356 353 354 354 353 353 353 354 352 351 352 352 347 340 344 349 346 341 335 333 330 327 324
329 334 334 336 337 334 332 330 330 333 336 340 342 341 341 341 341 342 342 342 343 343 345 346 342 345 345 345 343 341 340 340 340 338 339 341 345 350 351 353 349 347 347 349 351 350 350 350 351 352 352 352 354 345 325 326 326 327 342 352 354 353 352 351 351 351 351 351 351 355 354 351 349 349 342 336 341 349 343 339 335 331 328 326 325
331 328 331 331 335 334 330 330 336 332 337 339 340 341 340 339 341 342 342 342 342 343 345 343 345 344 345 346 346 345 343 341 341 343 342 342 344 347 350 353 350 349 347 350 352 352 350 351 352 352 350 351 353 348 325 323 323 324 339 353 349 346 347 346 344 342 346 346 346 351 349 348 347 345 331 333 338 349 340 338 336 333 329 327 326
328 328 331 332 336 334 332 333 334 337 338 339 339 338 340 340 341 342 341 341 343 344 346 348 347 346 346 346 346 344 342 340 342 343 347 345 343 345 345 351 351 351 347 349 351 349 348 349 349 351 351 349 351 354 341 321 321 322 330 352 350 346 344 343 343 343 343 344 345 345 344 337 334 330 327 328 330 336 339 337 335 332 329 327 328
329 327 336 330 328 327 327 331 336 340 338 339 340 340 340 341 341 341 341 342 345 347 347 347 347 346 346 345 345 344 342 342 341 341 346 345 342 343 350 347 346 349 350 350 350 350 348 347 348 349 350 352 353 352 347 321 319 320 325 345 348 347 346 344 342 341 342 341 342 341 336 329 327 327 326 323 323 329 338 337 335 333 332 330 331
331 333 332 329 328 331 335 334 337 339 341 341 340 339 339 340 340 338 340 343 344 345 345 346 347 346 346 345 344 343 343 341 340 341 343 344 343 344 342 346 347 348 348 347 347 346 347 348 346 346 349 351 354 352 352 323 319 318 321 332 346 347 347 345 343 341 341 340 338 337 332 326 319 319 319 319 320 324 330 338 337 324 323 328 333
330 329 331 334 336 334 335 338 339 341 342 341 340 338 338 339 339 340 341 343 344 344 345 346 347 346 345 344 344 343 342 342 340 339 338 341 343 342 342 347 346 345 346 347 346 346 346 345 343 343 343 345 350 352 340 333 319 317 317 325 332 340 334 347 343 339 338 335 335 331 329 323 315 313 313 314 316 319 328 323 316 319 323 327 333
327 327 336 337 337 338 338 340 340 341 341 341 340 339 338 338 339 343 343 344 344 344 346 346 347 346 344 344 344 344 342 342 341 339 338 337 340 342 343 346 346 345 345 345 345 345 344 344 341 342 344 346 348 351 339 334 327 317 315 319 325 327 331 343 342 338 335 332 329 326 322 312 309 308 311 314 318 323 320 313 317 321 326 332 328
330 335 338 338 338 338 337 337 339 341 342 343 342 339 338 338 341 343 343 343 344 345 346 342 339 342 343 343 344 344 342 341 341 340 338 340 341 342 340 343 344 342 342 344 344 343 343 341 339 341 343 345 347 348 344 331 327 324 316 318 323 323 325 325 337 335 334 329 319 311 308 309 309 309 310 313 315 316 315 317 321 327 331 325 326
334 336 337 338 339 338 337 335 336 338 339 341 341 339 338 340 342 343 344 344 341 341 344 345 343 342 341 343 343 342 342 341 340 339 338 341 340 340 342 345 344 342 343 344 343 342 341 341 340 339 340 344 345 345 340 335 334 331 325 320 321 325 336 335 335 326 322 313 310 310 310 311 314 318 322 323 321 322 323 326 328 329 325 325 324
334 336 337 337 337 334 334 335 335 337 338 339 339 339 340 341 343 342 342 342 341 339 342 343 342 343 344 344 342 340 340 343 343 340 340 341 342 342 343 344 343 341 341 343 342 342 341 340 340 341 342 343 341 341 337 334 334 331 330 332 332 331 332 326 321 318 319 317 320 322 320 318 319 320 321 322 323 325 326 326 325 325 326 326 327
336 337 337 337 336 334 334 335 335 338 339 339 339 340 340 340 340 341 342 339 339 338 341 341 341 342 342 342 343 343 340 339 341 338 334 333 337 340 341 344 343 342 341 339 339 340 340 339 342 342 342 342 341 339 334 332 331 331 332 333 330 326 323 320 318 318 320 322 321 322 318 321 320 319 319 319 320 321 324 325 324 323 323 325 327
335 336 337 337 336 335 337 337 337 339 338 339 339 339 341 340 341 341 343 341 341 341 340 339 339 339 340 340 340 341 341 340 340 334 326 323 323 328 330 341 342 346 345 343 340 341 343 343 345 343 341 341 342 337 335 326 333 325 330 330 326 323 321 320 322 316 320 319 318 317 316 316 316 317 317 317 319 320 321 322 322 322 322 322 322
336 335 336 337 337 337 337 337 337 338 338 338 338 339 341 341 341 341 341 339 337 338 338 339 339 339 338 339 340 340 340 341 339 337 329 325 313 305 308 318 332 326 317 322 327 340 345 344 345 344 345 344 340 340 321 314 312 311 312 313 313 311 312 316 314 314 317 315 313 313 313 314 315 316 316 317 317 318 318 318 319 320 319 318 320
334 334 335 336 337 337 337 336 337 338 337 337 338 339 340 340 343 344 343 342 341 339 337 338 339 340 339 339 340 339 340 340 339 340 339 336 335 328 306 303 307 312 306 302 310 316 322 329 344 344 329 320 323 313 310 308 306 305 304 304 304 304 305 307 310 315 315 313 312 312 314 315 317 317 316 316 317 317 317 316 315 316 316 318 319
Wind_Speed
5 6 4 2 4 4 2 4 5 2 3 4 4 4 3 5 3 6 3 5 6 5 4 6 7 5 5 9 9 9 7 7 8 7 7 6 5 4 4 4 2 4 7 7 5 5 7 7 8 6 6 4 4 5 6 7 3 5 3 2 5 5 5 6 8 7 6 5 4 5 4 5 6 7 6 5 4 3 3 7 7 8 8 9 6
5 4 4 5 5 4 3 4 5 6 5 5 4 3 3 3 6 7 3 2 1 2 4 6 2 2 5 8 9 8 6 6 5 4 6 7 4 3 2 5 5 5 6 5 5 5 6 8 8 7 5 5 4 4 5 4 4 5 4 4 4 7 5 7 8 7 6 6 5 4 5 6 8 7 7 8 8 5 5 4 4 8 10 8 8
6 5 5 5 5 4 5 4 5 6 8 8 9 6 4 3 2 1 3 4 2 1 5 4 4 2 2 1 3 2 2 6 2 1 2 3 3 4 2 2 4 3 5 7 6 7 7 8 8 7 6 5 4 4 3 4 4 6 4 5 6 6 6 7 7 6 6 4 3 3 5 2 1 3 4 7 8 8 8 8 6 8 10 10 9
9 6 7 8 6 6 6 5 4 6 6 7 7 9 7 4 4 2 0 2 2 5 5 5 3 1 3 6 5 3 3 3 2 3 3 3 5 5 3 3 4 4 6 8 7 6 7 8 9 8 6 5 5 4 4 7 5 5 7 7 6 7 7 7 8 6 5 5 4 4 3 5 4 6 7 7 7 6 6 8 8 8 8 7 4
8 7 6 6 9 7 7 4 5 6 7 5 7 7 7 9 7 4 4 4 3 4 4 5 2 2 3 1 1 4 4 3 4 4 3 1 2 4 6 7 6 7 8 9 9 7 7 8 8 8 8 5 7 6 5 8 9 7 7 6 5 7 8 6 6 7 8 4 4 2 3 3 2 3 4 3 5 7 7 7 6 4 8 7 4
6 9 8 6 3 6 7 8 8 7 7 7 6 7 8 8 8 7 6 6 7 7 7 6 4 4 4 4 3 2 4 5 6 5 5 5 5 5 6 8 8 8 8 8 9 8 8 9 8 9 9 8 6 7 7 8 8 8 7 7 8 8 7 6 7 6 7 3 7 6 4 3 1 3 3 1 3 6 7 6 2 3 1 6 5
8 5 3 5 5 2 4 7 8 7 6 7 7 9 12 9 7 8 8 7 8 7 9 7 5 5 7 7 6 6 6 6 6 6 5 1 3 3 8 11 10 9 9 9 9 8 8 7 8 8 9 8 7 6 7 9 9 10 8 5 6 7 5 5 7 8 6 5 8 9 8 7 7 5 4 4 3 3 4 4 4 3 5 7 5
10 7 4 5 5 6 7 5 5 5 6 9 10 10 11 9 10 9 7 7 7 7 7 7 6 6 7 7 6 7 8 8 7 5 4 7 8 11 11 9 9 8 8 9 10 10 9 9 7 7 8 10 9 8 8 9 7 9 7 8 6 6 5 6 7 7 7 6 6 6 7 8 8 8 7 6 4 2 2 2 6 8 5 2 4
8 11 12 7 7 8 8 9 4 3 4 5 5 6 7 11 12 10 9 8 9 9 8 8 8 8 8 7 7 8 9 8 5 4 3 3 5 6 7 9 7 5 3 3 4 7 8 9 8 8 9 8 8 10 9 10 10 7 6 4 6 5 5 7 6 6 7 8 4 4 6 5 5 6 7 6 5 4 4 4 3 3 4 4 2
3 7 6 2 6 7 4 5 4 7 3 4 4 8 6 9 8 12 11 10 10 11 10 10 10 9 9 9 10 9 9 8 6 6 6 6 7 9 8 7 7 5 4 5 6 6 6 8 9 10 9 10 10 11 11 9 6 9 7 6 5 6 5 7 6 6 6 7 8 5 3 4 5 5 5 5 6 5 6 4 4 4 3 1 3
4 7 9 11 10 7 8 15 11 8 6 8 6 7 10 10 15 11 12 10 10 11 11 11 10 10 10 11 13 12 11 10 8 8 7 7 10 12 10 9 7 7 6 6 6 7 8 9 11 11 10 9 9 11 11 10 10 9 7 9 7 7 7 7 7 7 6 6 9 7 5 5 4 5 4 5 5 3 4 6 4 4 5 2 0
6 5 7 8 2 7 6 1 13 18 16 19 20 21 22 19 9 6 11 9 9 10 11 10 10 10 11 11 13 12 11 11 11 11 10 11 12 11 9 9 9 7 6 5 6 7 8 8 10 9 8 9 9 10 11 11 10 8 8 7 7 8 8 7 6 7 9 7 8 8 7 7 7 7 7 6 5 4 5 3 3 2 3 3 1
6 1 4 5 4 5 2 3 2 3 8 8 6 4 4 2 6 6 5 9 9 10 10 10 10 11 11 12 12 11 12 12 11 11 10 11 11 9 8 8 7 7 8 8 9 10 8 10 10 9 9 10 10 9 10 11 9 9 8 8 10 9 9 8 7 9 9 8 7 7 8 8 7 7 6 6 6 5 4 2 3 3 4 1 6
7 7 7 1 3 2 1 2 1 5 7 1 3 1 0 4 5 3 4 6 7 8 9 9 9 10 11 12 11 10 11 13 11 12 12 10 8 9 11 10 9 10 11 11 9 10 10 10 11 8 6 6 6 7 9 9 9 9 8 7 9 6 7 8 8 10 9 10 7 7 7 7 7 6 6 6 6 5 3 3 3 1 1 3 2
8 2 1 3 1 3 2 3 4 4 1 1 4 2 2 5 2 2 2 4 4 5 5 8 10 10 10 11 12 11 11 11 11 11 11 9 8 10 10 10 10 10 11 10 9 10 12 11 10 9 7 9 9 8 9 10 8 7 7 8 8 6 5 7 9 11 11 11 10 7 7 7 7 4 7 2 4 5 6 3 1 2 1 1 3
7 9 7 6 6 5 4 3 5 5 2 2 3 4 5 3 3 4 4 5 5 5 5 7 7 9 8 10 13 13 11 11 10 11 10 9 11 12 12 12 11 10 9 10 10 10 12 10 9 9 9 10 9 9 10 10 9 9 8 8 8 8 6 9 8 10 11 11 10 7 7 8 7 6 4 1 2 1 6 3 2 4 4 1 2
1 3 6 1 4 1 4 4 3 3 4 4 3 5 4 3 3 4 4 5 5 5 8 8 8 9 9 11 12 12 13 14 11 11 10 13 12 13 12 12 13 12 10 9 12 11 11 11 9 10 10 11 11 11 12 11 8 8 9 7 9 9 7 6 7 7 9 11 9 11 8 7 5 3 2 2 3 3 2 0 2 3 5 4 2
3 1 3 4 4 4 4 4 3 4 5 5 5 5 4 4 4 6 5 4 4 6 7 10 10 10 10 11 12 14 14 14 13 11 12 12 12 12 12 12 14 14 13 13 11 14 11 11 11 10 11 12 13 12 12 12 10 9 10 7 7 7 7 6 7 8 9 7 8 8 7 7 7 5 3 2 1 2 2 1 5 5 5 6 4
1 4 4 4 3 4 4 2 5 5 3 6 7 6 5 5 4 3 4 5 6 6 7 7 9 9 10 11 14 13 11 8 9 13 11 14 16 14 14 14 14 14 13 12 12 13 14 12 11 13 11 11 12 13 12 11 10 9 10 9 8 8 7 6 6 7 8 8 7 8 7 6 6 4 4 2 2 4 2 3 3 4 3 5 6
2 3 4 6 7 2 4 5 6 4 6 7 8 6 8 6 6 6 5 6 6 7 7 8 8 9 11 12 12 11 10 10 5 7 6 13 14 15 15 15 15 13 14 15 15 16 15 15 15 15 15 13 13 13 13 11 10 10 9 10 9 8 8 8 8 7 8 7 6 7 6 4 4 3 4 4 2 4 5 5 4 5 5 4 4
1 4 5 7 5 6 6 6 5 5 6 6 6 7 8 6 6 7 8 8 8 8 7 7 7 8 9 12 13 12 11 9 11 7 9 13 14 15 15 14 13 14 13 12 12 16 15 15 16 14 15 13 11 12 12 11 10 10 10 9 8 8 9 9 8 8 8 8 6 6 5 4 3 4 4 3 4 7 5 4 5 5 5 3 4
4 5 7 5 5 6 6 6 5 6 7 6 7 7 8 7 7 7 7 6 7 7 7 7 8 8 11 11 11 11 10 9 11 10 9 13 15 15 15 13 13 13 14 16 15 16 16 16 16 15 14 14 12 11 11 10 10 10 11 11 10 8 7 8 7 7 7 6 5 4 5 5 3 3 3 6 5 5 5 4 4 5 5 4 4
4 6 5 4 5 5 5 4 5 6 6 6 6 6 7 8 9 7 8 8 8 8 7 7 8 9 11 11 11 10 10 11 12 10 10 10 10 10 10 13 13 11 13 13 16 16 15 14 14 13 13 14 13 12 11 10 10 11 12 12 12 11 9 8 8 8 8 6 6 4 4 4 3 4 4 3 6 7 4 6 5 3 5 5 4
4 5 4 4 5 6 4 6 6 5 6 6 5 5 8 8 7 7 8 9 9 7 7 8 9 11 11 10 10 11 12 11 10 7 7 11 9 11 7 9 13 11 13 13 15 14 11 13 14 13 13 12 13 13 12 12 10 11 12 13 11 10 9 9 9 9 8 7 7 6 5 3 2 3 4 3 2 8 7 6 6 5 4 5 4
5 5 5 5 5 4 4 5 4 4 5 5 5 6 6 7 7 7 7 8 8 7 7 8 9 10 11 10 11 10 10 9 9 6 8 9 9 11 7 11 11 13 12 9 5 4 9 13 13 14 14 13 13 14 14 13 12 10 11 11 10 8 6 4 7 3 2 4 5 5 3 5 1 4 4 4 2 4 5 5 5 4 5 4 3
4 6 6 5 4 4 4 4 4 5 5 5 6 6 6 6 7 7 8 7 7 8 8 8 8 10 10 12 11 10 10 8 5 7 9 9 10 10 10 10 11 12 8 8 10 9 10 15 14 14 14 14 13 13 14 13 13 13 12 11 9 7 6 7 6 6 5 2 4 5 4 7 6 6 5 6 5 4 4 5 6 6 5 5 5
6 5 4 5 4 5 5 5 4 6 6 7 7 7 7 7 7 8 7 7 7 7 8 8 8 10 10 11 11 11 10 8 7 8 8 9 9 9 9 9 10 12 11 8 8 11 11 13 14 12 12 12 13 11 11 11 11 11 9 10 8 8 8 5 5 5 7 6 6 5 4 7 8 7 5 5 6 6 5 4 4 5 5 5 5
3 4 5 5 5 5 5 5 6 5 5 7 7 7 7 7 8 7 7 8 7 7 7 6 7 9 10 12 10 10 10 10 9 8 8 9 9 9 9 8 7 11 11 8 6 7 9 9 11 10 9 6 5 6 8 10 10 9 8 7 8 10 7 7 8 8 8 8 6 4 5 5 8 8 7 6 6 7 5 5 4 5 5 5 5
6 5 5 5 5 5 6 6 6 6 7 7 7 7 7 8 8 8 7 8 8 8 9 9 8 8 9 10 10 9 9 9 10 10 10 9 10 9 7 7 9 10 8 4 2 4 8 8 10 6 7 7 7 6 5 7 8 7 7 6 9 9 9 8 9 8 6 4 5 7 7 6 7 11 12 10 9 8 6 6 5 4 5 5 5
7 6 5 5 5 5 6 6 7 7 7 7 7 7 7 9 9 9 9 9 8 9 9 10 9 9 9 10 9 9 9 8 7 11 11 10 9 9 8 8 10 8 6 8 10 9 9 10 9 8 7 6 4 4 11 13 9 7 6 6 7 8 9 9 9 8 7 8 8 8 6 10 12 14 13 12 12 11 10 7 6 6 6 6 6
6 5 4 4 5 5 6 7 7 7 7 7 7 7 8 9 9 9 9 9 9 10 10 9 10 10 9 10 10 9 8 9 10 10 10 9 7 5 6 12 12 11 8 8 8 8 8 8 9 10 9 8 8 9 19 17 14 13 8 8 9 8 9 9 9 10 9 9 9 7 2 6 8 9 10 13 12 11 12 10 12 11 9 7 6
5 5 5 5 6 6 6 7 7 7 7 7 8 8 8 9 9 9 9 9 10 10 10 10 11 10 9 10 10 10 10 10 10 11 10 8 7 7 9 9 12 13 9 7 9 9 8 9 9 7 9 9 9 17 23 17 17 16 13 9 9 9 9 9 9 9 8 7 8 6 6 8 9 8 8 9 11 12 12 10 10 9 10 8 6
7 6 6 6 6 5 6 7 6 5 6 9 9 8 9 9 9 8 9 10 10 10 10 9 10 11 11 10 10 10 11 12 12 12 11 8 6 8 9 9 11 10 9 9 10 10 10 10 11 12 12 11 11 16 18 18 18 18 17 12 9 9 9 9 9 9 9 8 7 8 7 8 8 16 10 8 7 7 7 10 10 9 10 9 7
7 7 6 5 5 5 5 6 7 8 9 8 8 9 9 8 8 8 9 10 10 10 10 11 11 11 10 9 8 9 12 13 12 11 11 11 11 11 9 9 7 7 9 7 8 11 11 11 11 11 12 12 12 13 16 18 18 18 17 13 9 9 8 10 10 10 9 11 10 9 8 8 8 9 8 9 8 8 9 9 8 5 5 7 6
6 7 9 5 4 5 6 7 8 8 8 8 8 7 7 8 8 10 9 10 10 11 11 10 9 10 9 6 7 8 10 13 12 12 12 12 12 10 9 9 8 8 7 9 10 10 11 12 11 10 10 11 10 15 15 18 19 20 20 16 10 10 9 10 10 9 9 11 11 11 9 8 8 9 9 11 11 11 11 9 8 6 6 6 5
7 11 7 6 6 5 6 6 6 7 8 8 9 8 9 9 9 10 10 10 10 11 11 8 7 10 8 6 7 8 10 12 14 16 15 15 13 12 10 8 9 8 7 7 9 10 10 11 11 10 11 12 10 15 16 17 18 19 19 12 10 9 10 9 9 9 9 9 11 11 8 9 8 9 12 16 13 11 10 9 8 7 7 6 6
10 9 9 8 6 7 6 7 8 8 9 9 8 8 9 10 11 11 11 11 11 11 10 9 8 7 7 7 6 8 11 11 11 13 16 17 13 11 10 9 9 7 8 9 9 9 8 9 12 11 11 10 9 12 18 18 18 19 14 10 8 9 9 10 9 9 9 9 7 9 11 9 9 8 11 15 17 14 10 10 11 9 7 7 6
12 9 9 8 7 7 9 11 13 11 9 8 8 9 10 11 11 11 11 11 11 11 10 7 6 7 7 7 7 8 10 10 10 14 14 15 14 11 9 7 8 8 8 10 8 6 7 9 10 10 11 10 10 9 14 16 18 19 16 12 9 9 8 8 6 4 5 6 9 16 13 9 9 10 15 15 16 13 10 12 11 11 10 8 7
11 12 10 10 7 8 12 13 9 10 9 10 11 11 11 10 10 10 10 11 12 11 9 8 6 6 8 8 9 8 8 11 13 12 11 13 14 12 9 7 8 7 9 7 6 6 6 7 8 9 11 13 10 10 13 15 15 17 15 9 7 8 9 5 5 6 6 7 5 7 9 11 12 11 16 13 17 14 11 11 11 11 10 9 8
12 13 11 10 8 8 11 10 9 9 10 11 12 12 11 10 11 10 11 12 11 10 8 8 7 7 7 8 8 11 12 11 13 13 11 9 10 12 11 9 8 7 8 8 8 8 8 7 7 8 8 10 10 8 10 15 16 17 18 10 8 10 9 6 7 9 9 7 6 4 5 9 15 15 16 16 12 12 12 10 10 10 10 10 9
11 12 10 10 11 12 12 10 8 8 10 10 10 10 9 10 11 11 12 11 10 9 8 9 8 9 10 10 9 10 12 11 12 13 11 9 10 13 10 9 10 8 8 8 8 6 6 7 7 8 9 10 9 10 9 14 16 17 18 13 7 8 9 10 9 9 8 10 8 6 5 10 18 22 19 16 14 14 12 9 7 9 8 11 11
11 11 11 12 12 9 9 11 10 10 9 8 9 10 11 12 11 13 13 12 11 10 9 9 9 10 10 9 10 10 11 11 11 10 12 8 10 11 12 9 8 8 9 9 7 6 6 4 5 7 8 10 9 9 6 10 15 16 17 12 8 10 10 11 11 10 9 8 9 9 8 11 15 14 14 16 16 13 12 7 7 11 17 16 8
10 10 11 9 8 9 10 10 10 10 8 8 10 12 12 12 13 13 13 11 10 10 10 9 9 9 10 10 11 10 10 7 9 10 10 12 11 10 12 8 8 9 8 8 8 7 6 5 4 8 10 9 7 7 11 10 14 17 16 15 15 11 14 11 12 11 11 9 9 10 10 15 13 16 18 16 16 15 9 8 14 17 17 16 12
11 12 11 10 9 9 10 10 10 9 9 10 11 11 12 13 15 12 12 11 10 10 9 9 8 9 9 10 10 10 10 8 8 8 10 13 14 11 10 7 7 7 7 7 6 6 7 7 7 8 8 7 7 7 9 12 11 14 15 14 17 15 15 9 11 11 10 11 10 10 12 19 19 17 18 17 18 14 12 15 16 17 17 13 7
10 10 10 9 9 11 11 12 11 10 8 8 9 11 13 15 13 10 10 10 10 10 9 10 12 11 11 9 9 8 7 8 6 8 9 11 11 10 9 7 6 6 6 5 4 5 5 5 4 4 5 6 7 5 4 9 14 14 13 15 18 17 17 16 12 11 12 10 13 17 19 20 20 19 19 18 16 14 15 14 15 15 12 7 6
11 11 10 10 10 10 11 12 13 12 11 9 10 11 14 12 12 10 9 8 10 11 10 9 9 10 10 11 10 10 9 7 7 6 9 11 10 9 8 5 5 6 5 5 5 6 5 6 8 8 7 4 4 4 4 5 6 9 8 15 19 18 17 18 17 14 18 19 20 19 21 20 19 16 13 10 9 10 14 15 14 12 6 6 6
12 12 11 10 10 11 12 12 13 12 11 11 12 12 12 11 12 12 10 8 9 11 11 9 10 10 10 8 9 9 10 7 6 5 6 7 7 7 6 5 5 5 6 6 5 6 5 5 5 8 8 5 4 4 4 6 7 7 6 11 14 16 23 22 16 14 17 14 15 16 11 12 13 16 16 14 12 11 10 8 6 5 5 6 6
11 11 12 12 11 11 11 12 12 11 10 11 12 12 12 12 13 12 6 6 8 9 10 10 12 9 8 9 7 13 11 7 6 4 4 4 3 4 6 6 6 7 6 5 4 4 5 5 4 5 6 7 7 6 6 7 8 9 9 9 12 13 13 14 14 12 12 14 14 15 15 12 12 11 10 7 7 7 6 5 6 6 6 6 7
11 12 11 10 11 12 12 12 12 10 11 11 12 12 12 13 12 12 8 8 8 11 11 11 10 9 9 8 8 7 7 7 6 2 3 3 5 5 5 4 2 4 3 3 3 2 3 5 5 6 6 7 7 7 7 8 11 14 15 12 12 13 13 13 17 20 16 12 10 10 10 11 10 10 9 8 7 6 5 6 7 6 6 6 5
11 10 11 11 11 11 12 13 11 10 10 11 13 13 11 12 11 9 8 9 11 11 12 10 9 8 10 10 8 7 7 6 6 1 3 2 1 2 4 5 6 12 13 8 6 2 2 3 3 4 2 3 5 3 11 13 14 14 15 16 14 16 17 18 19 21 17 13 11 11 9 10 10 9 9 8 8 7 8 8 7 7 6 6 5
11 12 11 11 11 11 12 13 12 11 11 11 11 11 11 12 10 6 6 6 8 8 10 9 9 8 10 11 9 8 7 5 4 5 3 2 1 2 12 15 12 12 11 13 6 4 4 4 3 3 4 3 11 16 18 15 16 18 21 22 21 20 20 22 25 20 14 13 13 12 10 9 9 8 8 9 8 9 8 8 8 7 7 7 7
Wind_Direction
131 159 173 211 205 249 295 294 292 324 329 1 16 6 0 344 236 211 197 188 186 198 209 192 201 211 214 227 228 229 229 233 234 225 236 255 272 274 112 106 123 278 260 235 221 236 252 265 270 251 258 246 227 236 250 255 243 190 240 139 248 256 265 264 254 246 247 250 255 243 240 229 236 230 251 278 262 218 226 179 185 163 168 198 194
148 154 173 206 222 221 220 240 260 253 233 245 283 294 343 325 1 4 327 244 229 221 194 225 212 227 233 212 233 238 233 202 218 244 246 247 261 264 174 158 182 215 248 233 219 223 244 252 260 270 248 240 235 224 236 237 245 274 268 267 257 257 254 256 256 247 221 246 245 230 236 230 232 232 227 220 232 218 216 226 170 137 185 192 185
162 165 163 228 224 228 207 231 242 241 234 241 239 253 268 272 315 20 357 335 240 261 42 46 58 108 108 355 32 275 22 9 14 336 303 296 348 357 21 178 177 208 251 258 224 219 227 247 254 256 254 247 243 236 248 261 260 249 254 252 267 268 261 253 251 246 277 242 238 251 257 310 351 316 245 240 238 220 204 207 197 174 189 198 188
167 171 188 189 196 221 216 213 244 245 250 238 234 230 229 234 224 182 198 289 324 69 93 90 141 148 49 33 350 326 331 339 308 273 258 259 265 266 261 243 229 225 229 244 239 223 230 242 251 252 249 225 240 236 227 244 238 238 250 245 235 255 257 254 247 219 217 240 248 239 225 199 238 222 236 225 234 265 257 222 198 189 193 201 207
157 167 228 199 193 202 214 209 217 233 247 239 243 240 235 232 220 202 188 199 203 146 145 146 144 66 39 299 209 329 297 247 239 242 231 161 246 237 239 237 223 227 222 226 237 225 222 235 246 255 256 239 215 228 231 240 242 233 227 238 240 247 253 263 278 267 217 209 283 294 272 267 251 278 276 232 210 213 224 241 252 223 187 175 157
193 169 189 214 234 190 191 197 215 217 226 239 253 259 253 231 229 206 201 201 206 169 174 168 163 160 191 244 259 204 242 234 222 225 212 185 217 247 264 232 215 218 225 230 232 232 226 223 228 241 255 258 227 221 234 230 237 246 244 227 236 240 255 266 270 275 269 220 194 225 277 285 294 297 334 319 349 321 319 301 243 228 217 140 196
175 177 175 204 208 279 236 191 215 229 227 232 226 232 234 234 220 213 201 204 213 200 175 176 163 179 193 210 214 212 227 229 224 224 207 115 335 307 268 251 222 216 223 228 226 230 244 230 215 222 238 256 251 220 234 241 241 240 238 225 231 244 234 254 258 267 278 249 234 228 222 221 246 266 231 256 259 208 245 273 277 236 202 201 210
145 205 190 227 215 189 213 207 210 228 243 238 220 232 231 210 218 208 199 188 205 206 194 179 169 174 194 209 212 218 231 239 235 237 233 155 204 227 234 238 237 226 227 225 217 218 227 235 227 225 225 234 255 244 229 234 242 244 224 218 228 231 228 237 247 252 259 271 261 262 244 229 230 235 247 264 273 295 239 253 291 306 310 253 170
197 171 195 202 191 210 215 218 208 233 269 299 284 236 259 229 210 207 187 185 196 196 193 186 182 186 196 204 217 226 231 235 221 192 210 256 243 242 238 246 241 229 228 254 243 237 229 230 229 220 213 220 241 254 243 229 225 246 250 190 217 229 230 239 237 249 266 269 257 227 260 272 252 242 255 247 251 261 269 252 228 235 252 272 257
102 90 133 201 231 215 153 149 276 292 284 258 278 297 275 284 247 194 187 191 195 197 194 195 192 190 204 212 217 223 225 227 217 199 198 208 221 231 235 241 241 227 227 233 228 233 254 254 241 236 222 220 228 243 246 243 205 228 236 239 234 242 235 236 239 238 242 265 275 272 211 250 282 286 260 251 252 244 254 254 267 262 243 226 272
156 194 179 197 209 226 197 169 202 229 257 272 282 269 276 285 268 206 187 190 200 199 198 200 202 209 206 207 216 223 223 218 209 212 203 208 219 222 219 218 223 231 223 217 219 225 235 242 240 230 229 224 221 236 251 246 234 216 216 225 226 230 234 235 242 243 240 235 255 271 271 224 219 258 266 265 265 251 253 266 266 266 278 319 354
176 162 194 165 136 245 211 195 159 186 202 217 212 195 208 208 207 189 183 195 198 199 195 200 204 211 221 212 215 219 215 215 211 214 208 213 221 223 224 222 217 211 202 211 215 220 227 238 239 235 233 237 227 226 241 241 240 230 219 207 217 226 231 234 239 250 243 241 246 255 257 261 247 227 238 238 239 255 268 276 261 279 312 311 16
128 245 233 169 190 220 206 161 184 241 207 212 247 303 336 233 199 193 191 186 201 210 208 203 204 210 213 220 220 215 215 216 214 212 210 214 217 227 230 226 209 210 210 209 215 218 222 226 226 223 221 223 228 226 224 234 242 239 230 197 213 212 212 215 222 235 247 246 239 236 250 255 250 257 258 261 254 230 174 218 287 8 292 226 4
148 186 236 140 225 228 121 258 238 238 254 234 343 350 188 338 335 307 208 205 202 215 230 232 221 214 210 217 222 216 217 216 215 217 217 220 222 230 236 234 225 223 223 222 212 207 218 220 220 216 224 246 259 243 234 228 229 241 244 234 230 218 210 211 220 232 238 246 244 249 250 251 255 259 259 246 252 257 241 234 107 132 67 65 79
140 124 71 230 193 272 214 234 237 261 210 322 267 181 202 228 216 195 285 298 291 270 246 233 233 235 232 231 227 219 217 213 215 218 216 209 204 217 223 230 232 225 226 225 218 209 211 216 206 211 208 228 244 259 259 238 228 229 239 247 232 219 192 215 221 230 235 235 237 241 249 241 248 229 252 353 354 342 309 96 148 123 104 68 145
136 145 164 182 177 212 221 203 246 235 133 269 307 336 306 341 351 313 308 301 285 282 275 276 274 270 251 228 231 233 220 215 210 217 222 212 208 213 220 226 235 239 225 223 217 219 225 206 199 208 212 217 224 241 251 244 230 222 225 233 242 232 213 220 224 226 233 239 240 232 232 244 252 251 243 209 136 158 245 120 127 138 129 118 21
131 152 119 151 247 253 278 262 282 326 332 324 331 305 312 315 314 319 316 290 275 273 278 277 275 271 265 266 261 242 217 215 209 200 202 214 217 219 223 222 226 234 234 221 223 220 225 219 207 211 213 214 222 229 240 240 229 230 226 222 228 230 227 213 223 219 229 233 231 231 227 229 244 265 14 305 169 186 308 150 179 118 135 144 146
110 274 140 216 223 231 257 273 279 333 322 317 311 307 344 9 313 282 274 288 304 296 286 278 271 266 269 269 256 255 254 230 219 209 197 207 213 221 218 217 220 228 231 231 224 222 221 221 215 212 210 210 217 223 231 236 221 221 227 220 218 225 234 224 226 227 229 235 244 239 226 230 221 188 214 195 119 42 324 39 96 118 146 152 155
70 272 270 226 230 238 235 318 333 309 339 320 325 332 320 278 276 300 316 305 296 289 280 274 272 273 271 267 271 272 270 267 220 214 192 198 208 211 216 217 219 222 228 229 221 226 221 214 215 217 211 211 211 218 221 228 221 218 221 222 216 212 225 236 234 230 232 232 231 242 243 234 233 192 152 191 126 109 89 113 97 97 120 133 142
199 279 311 313 279 277 356 342 314 338 339 327 319 321 307 344 349 324 306 292 291 293 294 288 285 280 279 279 279 281 287 297 279 223 199 209 209 215 216 216 217 221 227 225 226 228 222 215 216 216 219 217 214 212 215 218 218 218 214 219 218 207 214 224 231 227 233 234 240 239 235 232 232 145 166 157 182 138 152 126 130 123 117 118 124
334 297 292 282 353 346 333 324 339 350 326 319 323 328 324 319 320 320 309 304 293 285 284 285 286 286 283 280 277 277 280 282 289 250 211 215 220 220 220 218 218 220 218 223 226 230 227 222 219 214 215 215 213 213 212 210 210 209 209 218 217 206 206 211 218 228 231 232 235 236 230 229 246 196 159 189 135 123 130 122 128 130 113 111 125
309 309 293 354 345 317 320 329 342 331 311 320 334 323 315 328 316 301 293 293 296 295 292 293 291 286 283 282 281 280 283 284 279 272 248 238 228 227 223 220 219 217 216 219 226 229 230 228 223 217 213 213 208 215 205 204 206 203 209 214 215 207 212 211 204 217 222 233 241 235 232 234 203 252 228 157 145 147 156 137 127 131 138 138 161
300 292 319 328 316 315 312 347 327 308 320 321 311 314 312 304 302 306 306 296 289 286 283 283 283 283 282 283 285 284 284 284 280 273 266 258 256 268 284 251 222 214 219 221 225 226 228 228 227 221 214 212 210 209 210 209 200 203 210 213 215 205 206 200 200 207 213 222 232 234 238 216 208 214 231 225 169 126 147 137 139 136 135 149 159
272 290 291 312 304 297 338 333 307 322 314 309 306 308 301 303 299 292 294 298 295 290 287 284 284 286 289 289 288 291 288 284 288 298 294 279 261 255 226 276 282 248 223 221 230 236 237 239 232 223 220 214 209 208 207 209 204 196 203 209 208 209 209 203 203 207 211 212 221 214 201 184 230 222 208 195 205 137 147 152 147 152 148 148 145
259 282 301 295 283 311 319 287 307 313 312 305 309 297 288 289 298 298 294 291 288 285 286 286 286 286 284 282 280 283 286 283 281 266 262 252 255 257 236 239 239 251 242 229 249 287 260 249 233 222 218 219 216 210 206 204 206 193 198 203 203 198 205 141 174 146 234 237 226 219 173 136 90 252 193 125 84 135 149 142 139 149 145 136 129
262 264 262 279 295 283 274 304 310 313 308 311 300 295 293 297 295 297 291 290 289 290 286 288 287 284 284 283 285 286 284 283 267 274 270 264 255 243 245 246 244 254 251 213 213 221 230 243 244 232 224 221 220 212 203 203 204 200 196 197 194 187 134 155 173 182 189 225 253 225 200 178 187 216 205 148 164 163 148 144 151 143 137 132 133
258 259 267 260 262 289 310 299 313 307 307 305 301 297 298 294 292 293 293 289 289 287 285 287 290 288 288 289 289 286 283 272 254 259 256 257 257 249 243 242 242 247 250 235 204 211 226 240 236 236 230 223 222 211 208 204 204 200 188 177 168 137 150 151 160 156 173 201 226 232 195 177 178 189 182 166 154 139 146 147 142 138 136 141 138
267 275 288 301 300 298 299 308 297 297 296 290 293 295 298 301 297 294 293 293 292 289 284 276 280 285 288 287 287 289 285 279 269 257 254 253 248 251 245 250 271 260 255 243 234 239 242 248 269 265 266 278 283 255 226 215 214 195 181 170 146 165 149 157 172 191 194 201 202 226 217 198 178 176 169 162 153 146 150 155 151 144 142 148 155
291 295 284 287 291 293 300 294 294 293 291 294 298 301 302 300 296 292 292 292 294 290 283 274 270 270 275 280 286 290 290 284 281 281 269 260 263 259 255 244 238 243 237 242 241 251 274 295 295 334 0 340 319 284 289 239 211 192 175 145 164 163 162 162 179 170 170 166 219 224 222 208 188 178 170 161 156 159 157 162 169 151 147 154 173
284 282 280 278 292 303 291 308 305 304 307 307 305 304 303 300 296 295 295 295 296 288 284 279 273 271 272 276 283 284 283 284 277 276 278 279 280 277 281 285 264 242 228 229 237 236 229 228 229 231 223 222 217 244 248 232 186 187 168 155 158 166 166 175 178 169 156 163 211 231 214 216 205 184 169 166 163 167 169 169 165 165 163 164 178
273 266 284 311 287 291 306 298 301 303 302 300 300 299 294 292 292 296 296 294 294 290 283 283 280 280 281 284 284 282 278 271 271 268 268 271 264 269 263 248 248 246 227 232 221 220 223 232 236 231 222 205 195 196 228 207 198 181 171 165 171 170 173 171 172 173 178 168 188 223 230 249 238 185 172 168 166 178 178 178 179 179 183 168 172
315 336 318 315 327 313 307 305 305 303 305 306 298 291 294 295 296 296 296 294 292 289 286 285 281 279 282 287 289 286 273 272 272 272 272 266 267 243 219 231 248 241 234 227 230 225 223 226 232 233 234 228 215 210 216 199 188 185 178 172 170 170 176 181 173 170 176 175 181 195 188 192 193 185 179 173 170 175 183 184 175 185 189 181 171
313 307 330 313 294 305 304 299 297 311 309 297 296 300 299 296 294 297 298 293 289 287 287 278 277 285 287 287 290 298 292 285 279 280 279 275 256 260 256 235 225 228 230 222 234 233 219 216 213 210 218 218 217 218 216 198 190 188 183 169 174 170 171 176 173 170 165 170 185 195 207 196 185 182 179 162 160 165 151 135 118 128 120 111 90
305 311 301 297 307 299 311 330 331 309 298 301 302 294 287 290 298 298 293 291 289 287 284 287 289 291 288 294 302 295 288 282 277 280 274 269 253 242 247 251 242 232 218 215 221 235 232 221 217 214 219 220 206 214 201 194 192 191 187 180 173 167 171 178 174 171 168 171 188 197 195 194 176 173 162 158 145 137 134 132 137 144 145 127 118
301 313 302 303 350 4 348 319 301 305 305 298 293 295 306 306 304 297 292 288 286 286 285 288 295 293 284 286 280 291 296 294 288 280 277 268 259 243 225 230 246 246 222 195 215 225 229 231 224 217 224 225 213 205 202 194 189 186 187 186 180 172 173 185 185 177 169 174 191 199 202 192 180 176 165 157 147 147 148 144 154 137 84 60 39
336 328 356 19 352 328 313 308 313 303 308 313 310 313 309 304 299 293 291 288 288 287 284 285 285 276 265 268 285 294 290 290 293 294 283 275 271 265 256 237 227 230 237 225 214 212 220 231 230 218 222 229 223 201 197 197 188 185 181 188 183 183 176 179 179 179 176 182 187 192 191 197 184 178 165 156 152 150 149 156 129 108 104 81 66
321 325 351 339 341 320 324 321 311 311 309 304 310 315 310 302 298 296 294 291 288 286 286 278 277 276 279 290 291 283 287 288 288 288 283 278 272 267 258 237 227 218 227 221 220 214 204 222 237 230 223 229 230 201 193 192 191 184 178 190 187 193 179 178 181 177 180 184 184 195 196 189 182 160 160 162 161 153 159 137 134 126 115 111 99
330 347 331 329 321 323 318 317 307 305 314 320 321 313 303 298 295 294 293 293 292 291 296 297 285 280 281 281 266 264 269 267 265 267 267 274 271 266 262 246 227 222 226 228 222 219 208 216 225 233 228 226 232 214 197 195 190 183 182 184 182 180 182 178 177 145 142 175 198 213 205 169 172 161 163 167 160 166 157 146 142 132 132 133 135
328 323 325 323 326 333 314 301 300 318 325 319 313 305 300 300 302 300 300 299 297 298 312 298 284 287 280 284 285 277 268 273 272 261 262 272 278 272 260 245 239 224 233 233 216 216 211 218 219 218 228 232 230 225 200 200 194 187 189 186 169 192 191 170 127 143 161 166 164 198 162 163 161 158 148 167 169 173 147 153 145 141 143 144 148
327 325 327 325 327 315 297 301 325 327 320 313 307 305 306 300 292 291 289 288 291 301 295 271 278 281 277 270 279 288 291 283 274 275 264 254 261 269 256 255 249 238 235 228 215 202 205 206 216 226 218 221 229 232 203 197 195 192 194 186 185 187 175 141 142 146 151 150 148 158 147 168 165 155 165 163 193 173 150 146 151 149 146 148 144
329 325 333 323 315 302 305 322 324 322 320 316 312 304 289 289 289 288 287 289 295 301 306 302 294 293 290 293 293 286 284 277 278 280 280 278 271 267 260 245 253 249 236 234 215 202 202 218 209 217 232 227 218 218 213 200 195 194 194 187 174 158 156 151 154 146 150 155 155 152 133 140 158 162 169 161 168 146 143 150 157 153 149 135 142
322 325 321 304 301 323 338 326 323 320 322 315 306 292 294 294 294 290 293 299 305 313 311 301 288 291 293 295 296 291 286 281 281 281 285 274 270 272 263 258 256 247 240 235 222 210 211 204 187 223 236 236 230 226 205 206 202 197 193 169 152 169 158 151 150 151 149 152 146 146 143 137 129 128 143 144 134 132 137 142 144 130 126 132 126
321 314 307 343 359 341 327 323 318 314 302 295 291 293 297 296 290 292 297 302 311 309 306 294 283 288 295 297 296 289 286 272 283 290 294 286 261 250 257 254 252 254 245 234 218 211 191 160 167 225 237 236 227 215 199 189 200 199 183 182 175 169 161 155 146 144 150 142 133 130 127 120 110 120 120 115 111 112 102 113 124 118 117 118 119
314 327 356 0 335 333 323 317 315 312 311 300 299 302 299 294 289 295 300 305 309 308 294 285 280 290 298 301 297 295 297 290 285 297 296 286 284 282 265 244 247 252 249 242 240 224 199 184 192 222 237 237 227 215 174 178 189 197 180 182 165 160 151 150 143 139 135 137 134 132 128 121 119 114 113 114 108 106 117 117 112 115 114 113 114
349 360 339 339 330 324 323 315 312 307 289 286 296 300 301 296 296 302 308 311 308 308 307 308 308 305 302 298 297 292 292 295 296 291 276 272 271 274 265 252 244 242 235 231 214 183 178 147 165 218 220 209 205 214 138 165 187 192 178 170 154 142 138 130 120 127 128 123 123 126 120 113 111 108 104 99 100 109 110 106 105 105 109 108 107
339 332 338 327 323 321 317 311 309 309 308 305 303 304 301 298 305 307 309 312 320 313 309 304 300 300 305 311 312 310 298 298 306 300 292 287 279 266 256 245 244 238 217 223 197 198 188 170 165 206 226 214 165 162 140 157 163 147 157 144 130 130 125 119 112 101 109 116 118 107 106 110 110 110 106 107 112 110 107 103 103 102 101 110 105
330 325 322 319 315 311 309 308 304 307 307 308 306 303 300 303 306 310 323 333 321 315 309 304 305 308 314 315 318 311 311 303 287 276 255 269 289 277 258 246 234 242 236 220 211 212 184 164 197 195 202 164 159 156 136 127 126 116 126 132 120 118 111 103 101 110 110 107 102 104 103 97 95 99 102 106 108 107 101 102 105 105 100 104 106
318 316 315 309 306 307 305 304 303 303 308 308 306 303 306 307 308 310 317 312 301 297 309 310 314 313 316 319 302 309 315 317 333 8 344 325 304 311 284 246 230 225 217 205 196 202 179 174 197 153 159 157 162 158 147 142 136 137 141 132 127 124 125 126 121 120 119 116 111 108 103 101 101 95 99 103 106 104 105 105 106 105 104 109 121
312 313 311 305 305 307 306 304 304 308 305 303 303 305 305 305 306 313 321 303 310 313 315 319 318 320 318 318 305 296 302 317 331 57 7 1 342 330 320 304 277 279 223 205 187 174 138 162 193 159 175 173 162 162 175 155 152 153 147 140 139 136 133 132 134 127 113 104 100 102 106 107 109 117 120 121 122 125 118 105 101 105 106 107 103
314 310 306 304 304 304 304 302 301 305 306 309 306 304 301 302 313 320 325 324 319 313 319 319 323 321 319 315 313 311 322 331 329 235 198 249 262 95 46 352 346 2 6 48 81 43 68 131 154 185 137 141 135 168 133 142 142 133 115 110 110 118 126 125 122 113 112 112 110 105 109 116 124 129 133 136 137 134 123 118 117 115 123 125 123
315 312 308 304 305 304 301 301 304 313 310 303 302 305 307 308 311 307 301 296 305 317 311 316 323 321 314 317 321 328 328 334 326 320 249 262 245 61 42 39 40 22 28 21 44 98 68 55 124 121 39 26 135 127 134 133 123 117 114 114 115 115 116 120 120 116 106 116 123 127 135 138 141 141 140 139 138 134 134 134 139 148 148 144 134